Back to catalog

STARLINK-34498

AliveCommunicationsVLEO
NORAD 64421·PAYLOAD·🇺🇸 United States

Launched Jun 17, 2025 from Vandenberg Space Force Base

Loading…

Next Passes (next 24 hours)

TLE

FreshSource: CelesTrak SupGP

Epoch: Sep 15, 2026, 03:13 UTC

1 64421C 25129K   26258.13451389  .00037006  00000+0  12872-2 0  2588
2 64421  69.9993 314.9977 0003493 267.0830 307.0302 15.29563561    18

Track STARLINK-34498 in real time with AllMySat

Download on the App Store